Total_Precipitation_Accumulation
1.13 1.14 1.16 1.17 1.16 1.14 1.09 1.00 1.04 1.06 1.05 1.01 1.03 1.07 1.11 1.15 1.19 1.23 1.22 1.32 1.35 1.37 1.39 1.51 1.60 1.73 1.73 1.63 1.68 1.77 1.89 1.99 1.77 1.72 1.68 1.48 1.39 1.25 1.17 1.11 0.97 0.90 0.78
1.02 1.11 1.24 1.22 1.15 1.06 0.97 0.91 0.96 0.99 0.99 0.97 1.00 1.04 1.04 1.08 1.17 1.23 1.25 1.30 1.32 1.29 1.32 1.44 1.50 1.58 1.68 1.61 1.54 1.54 1.69 1.86 1.84 1.82 1.91 1.83 1.62 1.46 1.38 1.28 1.02 0.87 0.84
1.01 1.10 1.17 1.14 1.09 0.98 0.87 0.88 0.88 0.88 0.93 0.91 0.86 0.87 0.89 0.97 1.09 1.14 1.18 1.22 1.29 1.34 1.32 1.32 1.31 1.40 1.57 1.69 1.66 1.63 1.68 1.80 1.93 1.92 2.00 2.03 1.81 1.60 1.60 1.43 1.23 1.22 0.92
0.91 0.95 0.96 0.91 0.89 0.90 0.89 0.84 0.81 0.85 0.88 0.90 0.88 0.90 0.93 0.95 1.01 1.04 1.05 1.04 1.05 1.10 1.14 1.14 1.12 1.15 1.31 1.60 1.69 1.79 1.84 1.84 1.97 2.01 2.06 2.11 2.12 1.90 1.83 1.67 1.54 1.43 1.23
0.84 0.85 0.85 0.86 0.86 0.84 0.82 0.77 0.77 0.77 0.73 0.82 0.88 0.88 0.90 0.89 0.81 0.85 0.90 0.84 0.84 0.82 0.84 0.86 0.87 0.92 0.94 1.07 1.24 1.49 1.68 1.76 1.80 1.93 2.01 2.08 2.11 2.17 1.93 1.79 1.70 1.65 1.55
0.66 0.67 0.79 0.87 0.85 0.83 0.75 0.71 0.70 0.71 0.75 0.83 0.86 0.82 0.78 0.68 0.72 0.77 0.78 0.77 0.75 0.74 0.72 0.72 0.73 0.75 0.76 0.81 0.85 1.02 1.27 1.50 1.74 1.93 2.00 2.05 2.09 2.15 2.10 1.95 1.85 1.72 1.69
0.60 0.62 0.64 0.72 0.79 0.76 0.69 0.66 0.65 0.69 0.75 0.80 0.83 0.86 0.82 0.82 0.79 0.77 0.82 0.78 0.77 0.74 0.74 0.74 0.63 0.58 0.64 0.66 0.71 0.74 0.88 1.03 1.16 1.52 1.77 1.82 1.90 2.00 2.16 2.11 2.04 2.00 1.93
0.65 0.67 0.64 0.64 0.71 0.74 0.71 0.69 0.72 0.75 0.76 0.80 0.84 0.88 0.92 0.87 0.84 0.82 0.81 0.74 0.76 0.81 0.79 0.79 0.74 0.69 0.69 0.75 0.81 0.78 0.73 0.76 0.85 0.94 1.07 1.24 1.45 1.77 2.02 2.14 2.24 2.26 2.26
0.67 0.68 0.66 0.65 0.70 0.75 0.75 0.79 0.85 0.90 0.83 0.81 0.88 0.97 1.04 1.03 0.94 0.83 0.80 0.75 0.79 0.82 0.78 0.78 0.79 0.71 0.69 0.65 0.72 0.79 0.78 0.74 0.74 0.81 0.83 0.98 1.13 1.33 1.59 1.77 1.89 2.05 2.30
0.74 0.70 0.68 0.73 0.78 0.81 0.89 1.02 1.09 1.11 1.04 1.00 0.98 1.04 1.09 1.12 1.01 0.85 0.80 0.79 0.85 0.92 0.96 0.94 0.89 0.81 0.74 0.69 0.69 0.76 0.79 0.76 0.80 0.83 0.83 0.81 0.84 0.93 1.11 1.27 1.40 1.61 1.85
0.91 0.89 0.86 0.90 0.99 1.06 1.20 1.30 1.37 1.34 1.38 1.36 1.28 1.25 1.28 1.23 1.16 0.97 0.91 0.90 1.00 1.14 1.15 1.08 1.01 0.92 0.79 0.74 0.72 0.74 0.75 0.80 0.91 0.98 1.00 0.95 0.89 0.83 0.87 1.00 1.19 1.28 1.40
1.10 1.10 1.12 1.18 1.10 1.12 1.34 1.43 1.54 1.63 1.60 1.52 1.51 1.45 1.42 1.37 1.19 1.04 0.97 0.99 1.05 1.18 1.25 1.18 1.08 0.96 0.80 0.72 0.67 0.64 0.64 0.65 0.71 0.81 0.87 0.90 0.89 0.82 0.83 0.95 1.17 1.33 1.33
1.30 1.31 1.35 1.39 1.44 1.46 1.59 1.64 1.67 1.69 1.66 1.60 1.60 1.59 1.54 1.50 1.37 1.11 1.03 1.02 1.01 1.06 1.12 1.12 1.05 0.92 0.82 0.71 0.68 0.63 0.57 0.57 0.65 0.71 0.75 0.83 0.87 0.86 0.89 1.01 1.17 1.36 1.38
1.43 1.44 1.54 1.68 1.73 1.74 1.84 1.84 1.83 1.82 1.76 1.75 1.74 1.70 1.66 1.64 1.58 1.41 1.21 1.11 1.05 0.99 1.01 1.06 1.03 0.93 0.82 0.79 0.77 0.69 0.61 0.66 0.74 0.75 0.78 0.86 0.95 0.98 1.00 1.00 1.11 1.22 1.30
1.56 1.60 1.72 1.86 1.95 1.99 1.88 1.87 1.87 1.91 1.85 1.79 1.78 1.76 1.79 1.75 1.64 1.50 1.40 1.33 1.28 1.22 1.17 1.19 1.20 1.10 1.00 0.96 0.97 0.95 0.92 0.87 0.81 0.82 0.88 0.94 1.01 1.04 1.03 1.06 1.11 1.15 1.12
1.63 1.68 1.78 1.85 1.96 1.98 1.95 1.85 1.73 1.65 1.60 1.51 1.53 1.55 1.55 1.55 1.49 1.32 1.23 1.20 1.22 1.30 1.26 1.26 1.33 1.34 1.28 1.20 1.15 1.13 1.10 1.04 0.99 1.00 1.02 1.02 1.01 1.02 1.01 1.08 1.16 1.17 1.15
1.70 1.75 1.77 1.77 1.84 1.92 1.93 1.89 1.80 1.70 1.58 1.45 1.38 1.33 1.28 1.26 1.25 1.24 1.25 1.24 1.22 1.22 1.20 1.28 1.39 1.45 1.48 1.45 1.36 1.26 1.21 1.14 1.08 1.07 1.06 1.07 1.07 1.12 1.16 1.19 1.24 1.27 1.25
1.66 1.71 1.67 1.65 1.71 1.84 1.89 1.93 1.95 1.87 1.79 1.67 1.53 1.42 1.27 1.16 1.14 1.18 1.24 1.25 1.22 1.18 1.21 1.35 1.45 1.51 1.59 1.59 1.48 1.40 1.32 1.22 1.16 1.16 1.18 1.21 1.20 1.22 1.23 1.21 1.23 1.25 1.27
1.58 1.63 1.69 1.75 1.80 1.86 1.92 1.99 2.01 1.93 1.88 1.77 1.57 1.39 1.25 1.15 1.11 1.15 1.14 1.10 1.17 1.24 1.30 1.44 1.52 1.54 1.48 1.44 1.39 1.37 1.30 1.25 1.22 1.21 1.20 1.18 1.16 1.19 1.23 1.26 1.27 1.31 1.28
1.49 1.60 1.71 1.70 1.71 1.77 1.87 1.97 2.00 1.99 1.97 1.92 1.78 1.51 1.29 1.16 1.12 1.17 1.12 1.11 1.16 1.19 1.22 1.31 1.41 1.46 1.45 1.40 1.36 1.29 1.25 1.22 1.20 1.19 1.18 1.16 1.18 1.19 1.17 1.21 1.26 1.23 1.21
1.51 1.49 1.57 1.58 1.59 1.63 1.70 1.77 1.83 1.82 1.76 1.73 1.69 1.53 1.38 1.23 1.22 1.19 1.15 1.15 1.13 1.11 1.17 1.28 1.35 1.34 1.29 1.26 1.27 1.22 1.19 1.20 1.18 1.16 1.19 1.21 1.22 1.21 1.14 1.12 1.11 1.10 1.09
1.58 1.53 1.42 1.42 1.44 1.51 1.55 1.58 1.61 1.57 1.53 1.51 1.48 1.39 1.35 1.26 1.27 1.24 1.16 1.12 1.06 1.01 1.02 1.09 1.17 1.20 1.16 1.12 1.14 1.16 1.15 1.12 1.14 1.12 1.11 1.12 1.14 1.11 1.06 1.06 1.07 1.09 1.12
1.50 1.46 1.35 1.27 1.23 1.31 1.33 1.36 1.39 1.37 1.37 1.37 1.34 1.24 1.18 1.20 1.16 1.09 1.03 0.98 0.95 0.95 0.96 1.01 1.04 1.03 1.00 0.96 0.98 1.02 1.03 0.99 1.00 1.02 1.05 1.07 1.06 1.01 1.00 1.01 1.00 1.04 1.08
1.40 1.38 1.33 1.22 1.11 1.10 1.18 1.29 1.31 1.30 1.29 1.21 1.10 1.02 1.00 1.01 0.96 0.86 0.82 0.82 0.82 0.80 0.80 0.83 0.80 0.76 0.78 0.81 0.84 0.85 0.84 0.81 0.80 0.84 0.86 0.91 0.94 0.91 0.90 0.92 0.88 0.93 1.05
1.17 1.19 1.20 1.15 1.04 0.99 1.08 1.18 1.16 1.10 1.05 0.98 0.89 0.86 0.83 0.80 0.79 0.77 0.74 0.73 0.71 0.70 0.64 0.64 0.66 0.65 0.66 0.66 0.66 0.65 0.62 0.60 0.58 0.61 0.65 0.71 0.80 0.85 0.86 0.88 0.92 1.00 1.09
0.97 0.97 0.98 0.96 0.91 0.87 0.92 1.01 1.02 0.95 0.92 0.84 0.74 0.72 0.73 0.74 0.76 0.76 0.72 0.67 0.65 0.62 0.57 0.58 0.61 0.60 0.58 0.57 0.54 0.49 0.45 0.43 0.44 0.49 0.51 0.58 0.70 0.79 0.82 0.86 0.87 0.93 0.99